Location: G�ppingen
(48.7089°N, 9.6563°E)
Time: 05:46:22
(UTC+02:00)

XW-2C - Visible Passes

Search period start: 18 October 2019 00:00
Search period end: 27 October 2019 23:00
Orbit: 508 x 529 km, 97.5° (Epoch: 17 October)

Date Brightness Start Highest point End Pass type
(mag) Time Alt. Az. Time Alt. Az. Time Alt. Az.
18 Oct ? 07:03:11 10° NNE 07:06:45 41° E 07:10:17 10° S visible
18 Oct ? 19:22:13 10° SW 19:25:06 20° W 19:28:00 10° NW visible
19 Oct ? 06:49:25 10° NNE 06:52:44 29° E 06:56:01 10° SSE visible
19 Oct ? 19:07:45 10° SSW 19:11:03 28° W 19:14:23 10° NW visible
20 Oct ? 06:35:47 10° NE 06:38:41 21° E 06:41:34 10° SE visible
20 Oct ? 18:53:28 10° S 18:57:03 40° W 19:00:37 10° NNW visible
21 Oct ? 06:22:22 10° NE 06:24:37 15° E 06:26:51 10° SE visible
22 Oct ? 06:09:36 10° ENE 06:10:30 11° E 06:11:25 10° ESE visible
23 Oct ? 19:48:25 10° WSW 19:49:42 11° W 19:50:57 10° WNW visible
24 Oct ? 07:13:29 10° NNE 07:17:10 55° E 07:20:50 10° S visible
24 Oct ? 19:33:13 10° SW 19:35:35 16° W 19:37:58 10° NW visible
25 Oct ? 06:59:38 10° NNE 07:03:10 38° E 07:06:40 10° SSE visible
25 Oct ? 19:18:32 10° SW 19:21:31 22° W 19:24:30 10° NW visible
26 Oct ? 06:45:55 10° NE 06:49:07 27° E 06:52:20 10° SSE visible
26 Oct ? 19:04:07 10° SSW 19:07:28 31° W 19:10:50 10° NNW visible
27 Oct ? 05:32:18 10° NE 05:35:04 19° E 05:37:49 10° SE visible
27 Oct ? 17:49:51 10° S 17:53:27 44° W 17:57:03 10° NNW visible
